This is the latest recevied weather packets stored in our database for station/object K4AGR-13. If no packets are shown the sender has not sent any weather packets the latest 10 day(s).
| Time | Temp. | Humidity | Pressure | Rain* | Wind** | Luminosity | Snow |
|---|---|---|---|---|---|---|---|
| 1777494730 | 28.89° C | 57% | 1011.2 hPa | 0 mm | - | 193 W/m² | - |
| 1777494427 | 28.89° C | 55% | 1011.5 hPa | 0 mm | - | 178 W/m² | - |
| 1777494123 | 28.89° C | 55% | 1011.4 hPa | 0 mm | - | 189 W/m² | - |
| 1777493820 | 29.44° C | 54% | 1011.3 hPa | 0 mm | - | 226 W/m² | - |
| 1777493519 | 29.44° C | 54% | 1011.7 hPa | 0 mm | - | 233 W/m² | - |
| 1777493215 | 29.44° C | 53% | 1011.6 hPa | 0 mm | - | 294 W/m² | - |
| 1777492912 | 30° C | 52% | 1011.7 hPa | 0 mm | - | 293 W/m² | - |
| 1777492609 | 30° C | 52% | 1011.9 hPa | 0 mm | - | 289 W/m² | - |
| 1777492304 | 30° C | 52% | 1012 hPa | 0 mm | - | 406 W/m² | - |
| 1777492001 | 29.44° C | 52% | 1012 hPa | 0 mm | - | 446 W/m² | - |
| 1777491698 | 29.44° C | 53% | 1012.3 hPa | 0 mm | - | 413 W/m² | - |
| 1777491396 | 30° C | 51% | 1012 hPa | 0 mm | - | 350 W/m² | - |
| 1777491093 | 30.56° C | 48% | 1012.1 hPa | 0 mm | - | 331 W/m² | - |
| 1777490787 | 30.56° C | 49% | 1012.1 hPa | 0 mm | - | 1215 W/m² | - |
| 1777490485 | 30° C | 51% | 1012.3 hPa | 0 mm | - | 660 W/m² | - |
| 1777490181 | 30° C | 50% | 1012.4 hPa | 0 mm | - | 821 W/m² | - |
| 1777489878 | 30° C | 51% | 1012.7 hPa | 0 mm | - | 949 W/m² | - |
| 1777489576 | 30° C | 50% | 1013 hPa | 0 mm | - | 1006 W/m² | - |
| 1777489272 | 30.56° C | 50% | 1012.9 hPa | 0 mm | - | 862 W/m² | - |
| 1777488969 | 30.56° C | 51% | 1013.2 hPa | 0 mm | - | 807 W/m² | - |
| 1777488666 | 30.56° C | 49% | 1013.2 hPa | 0 mm | - | 610 W/m² | - |
| 1777488364 | 31.11° C | 48% | 1013.1 hPa | 0 mm | - | 1122 W/m² | - |
| 1777488062 | 31.11° C | 46% | 1013.4 hPa | 0 mm | - | 1083 W/m² | - |
| 1777487759 | 30.56° C | 47% | 1013.5 hPa | 0 mm | - | 1018 W/m² | - |
| 1777487457 | 30.56° C | 49% | 1013.4 hPa | 0 mm | - | 643 W/m² | - |
* Rain latest hour (hover to see other rain measurements)
** Current wind speed in m/s (hover to see current wind gust speed)